Theta_e
349 349 349 347 346 343 335 345 345 341 337 338 344 345 345 345 348 346 344 339 339 339 338 336 333 331 330 329 332 337 337 336 336 337 336 336 340 343 339 342 339 339 342
347 349 348 348 347 343 333 341 342 339 336 337 344 344 345 345 345 347 343 345 342 342 342 341 338 337 336 334 331 330 333 338 347 344 338 340 334 337 342 340 343 341 339
347 347 348 347 348 346 342 340 346 345 344 341 343 343 345 345 343 345 347 346 344 343 344 343 342 341 341 341 339 336 332 331 335 345 337 335 333 335 333 337 343 339 336
348 347 348 348 349 349 347 342 343 345 346 348 346 344 344 345 345 342 343 346 347 345 345 345 346 345 344 342 342 342 340 339 337 337 339 339 339 337 336 336 336 337 339
347 347 345 346 348 348 348 349 349 348 347 348 347 346 346 346 343 344 343 341 344 346 347 346 346 346 346 346 343 343 343 342 342 342 342 342 342 342 342 341 340 339 337
347 347 347 345 346 347 347 348 350 349 348 348 346 348 348 347 346 345 344 344 344 344 345 346 348 348 347 347 347 346 344 344 343 343 343 343 343 343 343 343 343 343 342
347 348 349 347 348 349 349 349 349 348 349 348 347 346 346 345 348 348 347 347 345 346 346 344 346 347 348 348 348 347 347 346 345 344 343 343 344 344 344 344 344 343 343
348 346 348 348 349 350 349 349 349 348 348 349 348 345 342 344 345 347 349 349 348 347 348 348 345 347 346 348 348 348 349 348 348 347 347 346 346 347 347 346 345 346 346
348 347 346 346 347 348 349 350 349 348 348 348 349 345 343 343 342 344 344 346 347 348 348 348 348 348 347 348 348 348 349 350 350 348 348 348 348 347 342 341 343 343 344
349 349 347 346 347 348 349 348 348 348 348 349 349 349 345 345 345 343 346 348 348 347 348 348 349 348 347 348 350 348 348 350 349 350 348 347 347 344 340 338 339 340 343
350 349 347 347 347 348 349 348 347 348 349 349 347 345 347 347 347 344 345 345 345 345 347 348 348 347 346 344 350 350 348 351 350 350 346 347 346 344 341 338 339 340 340
350 350 349 348 346 347 348 349 350 350 349 348 346 344 344 345 345 345 345 343 344 344 344 346 346 345 342 346 348 350 349 348 347 348 346 346 345 341 339 339 339 340 341
350 350 349 349 348 348 348 348 348 349 347 347 345 345 346 346 346 345 344 342 341 344 344 345 346 345 344 347 347 348 348 347 346 347 346 344 343 340 339 339 340 341 341
350 349 350 351 350 350 349 348 348 347 347 347 346 346 345 346 346 347 346 344 341 340 343 342 343 345 347 347 347 347 347 347 347 346 345 344 342 339 339 340 341 341 342
350 349 351 350 351 351 349 348 347 347 348 347 347 345 346 347 346 346 347 347 344 346 340 342 343 343 343 343 345 343 344 347 346 346 345 343 340 338 339 340 341 341 341
350 351 350 350 350 349 351 349 349 349 348 346 346 346 346 346 347 347 346 347 346 344 343 341 341 341 341 343 343 344 346 346 345 345 344 341 338 339 339 340 341 341 341
352 352 351 350 350 350 351 350 349 348 347 347 346 347 347 346 345 345 345 345 343 342 341 341 341 341 343 344 343 344 345 345 344 343 342 339 338 338 338 339 340 341 341
351 352 351 349 350 350 350 350 348 349 349 346 346 348 346 347 346 344 345 344 343 341 341 340 341 341 344 344 343 342 342 342 341 341 339 338 337 337 337 338 338 340 340
348 348 349 350 350 348 350 348 349 349 348 346 347 346 344 346 347 345 345 345 344 342 340 340 341 343 344 344 343 342 341 341 340 340 338 336 336 335 335 336 338 339 340
343 332 345 348 349 348 347 350 349 348 347 346 346 345 345 345 345 345 345 344 344 344 344 343 343 343 343 343 342 340 339 339 338 339 337 337 336 335 335 335 336 339 340
338 333 341 345 348 348 347 349 348 348 345 345 347 346 345 345 345 344 343 344 344 343 344 343 342 342 342 340 341 340 338 337 337 337 338 337 336 335 334 334 335 336 339
336 333 336 343 347 348 347 347 349 349 346 346 346 346 346 346 345 344 343 344 343 343 342 342 342 342 342 342 340 339 335 334 333 334 335 334 335 335 334 334 335 335 337
338 340 338 339 347 347 347 346 347 348 349 348 347 346 345 344 343 343 344 344 345 343 342 341 342 342 342 342 342 339 337 335 334 333 333 333 334 334 334 333 334 336 337
338 342 343 343 345 346 345 346 346 346 349 349 348 347 346 345 344 344 344 343 344 343 343 343 341 339 341 341 341 341 340 338 335 334 333 333 332 333 334 333 333 334 337
338 341 343 343 343 342 343 344 344 344 346 347 347 348 347 345 346 345 344 342 344 343 342 342 339 338 341 340 339 340 338 334 333 333 332 333 333 334 334 333 333 334 335
340 339 343 343 344 342 342 342 340 339 342 344 345 346 345 344 344 343 342 343 343 343 343 342 340 338 338 337 336 339 340 336 333 332 333 332 332 332 332 333 334 333 334
Wind_Speed
20 21 20 19 20 19 20 18 17 15 15 14 12 9 7 5 7 7 16 17 16 16 16 15 14 14 15 15 17 16 16 16 16 15 15 15 15 13 13 14 13 13 13
22 23 21 23 21 20 20 21 19 16 16 14 13 11 10 7 4 9 17 16 15 16 14 15 14 14 15 16 17 17 17 17 17 16 16 16 15 18 17 15 16 15 16
26 25 24 24 22 19 19 20 18 15 14 15 16 13 12 13 10 8 13 14 18 17 17 15 15 15 16 16 17 17 17 18 18 18 17 16 17 17 18 18 18 17 16
27 28 27 26 23 22 21 21 20 19 18 18 22 19 18 16 11 14 15 13 19 21 19 17 17 15 16 17 16 18 17 18 18 18 18 17 18 18 18 18 19 19 19
28 29 29 29 26 24 23 22 20 20 26 21 20 17 15 17 16 15 17 18 18 20 23 20 20 18 17 17 18 19 18 17 18 18 18 18 18 19 19 19 20 20 20
28 28 26 27 25 25 26 25 25 20 21 16 16 14 14 15 20 23 19 18 20 21 22 23 21 24 23 21 19 19 21 20 21 21 20 20 20 20 20 20 20 21 22
28 29 28 26 25 25 25 29 25 24 23 21 16 17 19 20 18 22 25 24 24 22 24 25 25 24 24 23 22 21 21 22 21 21 21 21 22 22 23 24 24 24 23
30 29 29 28 26 23 22 27 24 19 19 19 9 3 2 11 24 24 22 23 25 23 24 26 28 27 24 24 24 23 22 22 22 22 21 21 20 20 21 22 23 24 25
35 34 31 30 30 27 26 29 27 24 22 21 20 6 1 4 1 13 26 30 29 28 29 27 28 28 26 27 27 25 22 22 23 22 20 20 18 18 19 17 17 19 20
37 35 32 30 30 29 27 27 26 25 24 23 16 23 17 2 3 3 4 4 9 21 26 24 24 22 20 25 29 27 24 23 22 21 20 19 17 17 16 17 18 18 18
35 37 35 32 32 30 29 29 27 26 27 26 23 13 24 24 21 4 4 8 10 9 13 24 27 30 29 22 27 29 25 22 21 21 20 20 17 16 18 18 18 18 18
35 36 36 35 35 34 32 30 28 28 30 29 28 26 23 9 16 8 6 6 7 21 16 13 16 16 19 21 22 25 23 22 22 21 21 17 16 16 17 16 17 18 18
33 37 35 34 35 36 33 31 31 31 32 29 29 29 27 26 21 17 15 3 6 11 8 14 15 16 17 19 19 18 21 22 22 20 16 16 15 15 15 15 16 16 18
33 33 34 33 34 35 35 32 30 30 31 30 26 22 22 23 25 28 21 12 3 5 7 10 9 12 16 19 15 13 19 19 18 15 16 14 14 14 13 13 13 14 14
33 34 35 35 35 33 31 30 30 28 24 24 23 21 22 23 23 25 24 23 14 4 3 11 12 14 15 17 22 24 20 20 15 15 15 14 12 11 10 10 11 11 10
31 33 34 34 33 31 30 27 27 25 24 24 23 21 19 17 16 15 17 19 19 15 3 7 9 6 9 11 11 14 20 18 17 16 14 12 11 10 9 9 8 8 9
31 34 34 30 33 32 29 27 27 25 24 23 23 22 21 19 17 16 16 15 16 18 9 8 11 12 11 13 12 13 14 14 15 13 11 10 10 8 8 8 7 6 6
19 22 28 27 32 31 30 28 29 27 25 24 23 21 21 19 19 16 16 16 17 19 19 11 13 13 10 11 10 10 11 13 12 11 10 10 8 7 7 6 7 6 6
19 17 15 22 30 29 30 29 30 28 24 23 23 23 22 20 22 20 20 18 18 17 19 17 13 11 10 12 13 11 11 13 11 11 9 9 8 8 7 6 6 7 7
26 28 22 24 30 30 31 30 30 30 26 24 25 23 22 21 23 23 21 21 20 19 19 18 17 13 11 10 14 15 14 13 13 14 13 12 11 10 9 8 7 8 10
32 40 35 31 27 33 30 30 30 30 28 26 25 26 24 23 21 22 23 23 22 20 19 17 15 10 10 9 16 16 17 14 14 14 14 14 13 13 12 11 12 11 12
24 25 20 24 31 31 26 26 30 30 29 28 27 24 23 24 22 23 24 25 24 23 22 21 17 11 17 16 16 19 17 11 4 16 18 19 16 15 13 12 11 13 15
19 25 28 26 25 26 24 28 26 28 28 30 31 27 26 24 22 21 25 25 26 26 24 21 22 22 19 21 20 21 23 18 13 9 14 16 18 19 14 13 12 13 17
19 15 17 18 18 14 19 23 27 23 21 26 28 30 28 26 24 23 24 27 26 28 26 25 23 21 20 17 20 22 25 25 16 14 13 7 14 18 16 14 12 14 17
9 5 10 15 17 12 14 14 16 22 24 24 23 25 24 23 25 24 26 28 27 29 29 27 23 20 19 17 16 19 19 17 7 11 18 12 11 17 17 16 14 14 18
6 5 4 9 10 8 7 11 16 17 20 22 23 19 16 19 23 24 26 28 29 32 27 26 24 22 21 21 23 23 24 21 10 6 17 17 13 12 4 17 18 15 15
Wind_Direction
193 194 200 197 196 196 197 195 203 208 213 218 222 232 264 262 233 196 199 203 204 207 218 210 206 212 211 212 213 214 216 217 215 213 214 216 217 222 228 226 229 228 231
196 193 199 203 205 204 202 202 203 207 217 223 230 238 243 215 210 210 202 210 211 205 218 229 217 221 222 221 220 221 223 225 226 225 226 225 223 221 226 229 233 237 235
202 200 201 203 207 205 206 206 211 216 219 224 236 246 245 227 233 207 213 237 220 217 219 225 235 233 232 232 230 229 229 231 231 231 235 232 233 234 232 232 237 239 240
209 206 203 208 207 211 209 212 216 222 232 246 241 251 247 233 238 229 221 230 232 231 223 221 234 243 247 241 238 237 236 237 237 240 242 240 241 244 243 241 242 241 241
210 212 213 215 215 213 211 214 220 227 232 248 230 237 236 235 248 242 232 230 234 239 238 235 236 240 245 243 245 242 245 245 246 245 248 250 249 249 250 251 251 249 248
211 209 212 215 213 214 219 221 221 222 222 227 219 230 241 246 254 253 246 239 242 246 246 246 248 239 242 243 245 247 247 250 251 252 252 253 254 256 258 258 257 254 253
212 210 211 211 215 219 224 218 217 216 221 225 229 243 253 252 261 255 251 244 247 251 251 250 250 248 248 249 250 251 250 249 252 256 259 262 264 265 265 263 259 257 256
213 215 216 216 216 218 223 215 219 223 228 219 205 156 280 260 249 252 248 248 247 251 254 251 251 249 257 256 255 256 252 251 254 256 257 261 265 270 271 271 267 260 256
214 215 219 222 221 219 215 213 219 223 227 227 223 183 145 231 268 242 245 247 253 257 254 253 251 249 257 259 261 258 253 253 254 251 254 257 261 266 272 274 273 269 264
218 217 219 223 225 222 223 220 222 228 226 227 224 231 231 205 192 310 246 237 256 255 252 249 241 244 257 266 263 254 253 252 255 249 253 256 258 269 275 277 278 274 268
219 217 220 223 226 223 227 229 228 226 227 228 218 219 237 240 248 207 259 270 276 281 268 248 249 254 256 274 269 250 246 249 251 248 251 254 256 270 278 278 277 274 267
214 217 222 224 223 223 222 226 229 231 230 234 239 240 231 215 223 205 232 233 251 273 263 251 246 257 245 249 264 245 242 249 252 252 252 250 261 274 277 277 276 274 267
214 221 226 230 228 226 228 230 234 236 240 238 236 238 241 235 243 246 239 221 238 260 261 243 243 242 247 250 244 241 239 247 251 245 242 255 267 277 277 279 277 273 265
222 231 230 233 231 230 232 231 232 239 240 239 242 239 246 251 254 258 246 233 253 252 253 244 255 235 235 228 214 235 260 254 244 240 246 257 272 273 276 278 278 275 265
224 228 231 231 232 230 230 229 228 230 232 237 240 243 240 244 251 255 248 245 217 237 243 254 233 234 230 245 232 246 261 254 235 237 249 261 263 267 268 273 277 270 251
223 227 228 230 231 227 225 225 229 223 225 227 230 232 233 236 240 238 240 237 233 222 238 236 228 228 251 248 248 240 236 233 233 239 246 253 261 260 262 266 273 267 248
221 223 227 229 231 225 220 218 221 218 216 225 230 230 231 230 227 226 229 229 227 217 209 234 257 283 239 244 225 226 225 226 226 234 242 251 255 256 263 266 262 258 246
215 226 231 239 229 221 216 215 214 214 216 222 226 232 238 235 232 231 235 243 235 228 226 222 243 264 237 220 211 209 211 217 222 225 238 238 240 251 262 269 257 239 223
212 212 221 248 220 216 213 207 215 216 216 223 229 230 236 236 239 236 230 233 239 236 232 233 239 240 221 205 194 201 212 214 218 219 224 228 230 233 235 243 245 228 212
202 188 230 245 225 218 216 209 217 220 217 223 232 229 236 235 239 239 237 236 234 231 235 233 241 241 215 211 205 198 203 219 217 222 228 236 233 235 240 240 235 227 209
210 199 225 232 233 224 220 213 220 224 222 219 229 234 235 240 244 251 245 240 239 233 229 229 227 222 207 184 206 217 225 229 230 239 239 238 245 241 238 234 226 215 210
231 222 238 245 234 228 225 227 230 226 232 229 230 230 237 241 243 251 254 254 248 235 234 230 226 212 221 221 222 214 211 200 229 238 236 244 243 244 238 233 225 215 202
223 229 233 244 237 232 231 232 236 234 237 237 238 234 239 243 241 245 252 253 249 246 246 245 234 234 230 230 226 217 212 207 214 232 225 245 243 245 243 241 232 219 206
221 223 220 222 223 242 251 242 241 242 247 247 249 243 238 243 245 245 249 251 249 244 245 241 246 251 241 241 232 234 231 223 229 225 223 219 241 241 240 239 237 228 216
213 234 226 214 218 214 244 267 271 262 259 258 257 252 244 256 255 252 253 254 248 245 242 244 248 252 245 236 239 221 211 189 199 211 217 215 212 219 230 230 225 221 218
168 176 202 208 204 216 232 256 257 263 273 263 251 235 240 252 265 262 258 254 251 247 250 240 238 239 238 237 238 236 225 195 197 197 222 201 207 192 191 221 220 217 218